Location: Dob?e?
(49.9411°N, 15.1496°E)
Time: 02:27:37
(UTC+00:00)

X-37B - Pass Details

Date: 07 August 2021
Orbit: 381 x 393 km, 45.0° (Epoch: 29 August)

Event Time Altitude Azimuth Distance (km) Brightness Sun altitude
Exits shadow 01:00:59 14° 122° (ESE) 1,194 3.0 -18.9°
Drops below altitude 10° 01:01:43 10° 111° (ESE) 1,397 3.5 -18.9°
Sets 01:04:08 0° 93° (E) 2,252 4.8 -18.7°
